Date,Time,Wetness (Wet Dry or Ice),Wind Speed (m/s),Temperature (C),Humidity (%),Pressure (mb),Radiation (W/m^2)
2021-02-12,04:55:00,DRY,5.40,5.55,28.5,775.00,0.9
2021-02-12,05:00:00,DRY,5.57,5.50,28.3,775.00,1.0
2021-02-12,05:05:00,DRY,6.15,5.50,26.5,775.00,1.2
2021-02-12,05:10:00,DRY,6.60,5.37,26.0,775.00,1.7
2021-02-12,05:15:00,DRY,6.50,5.35,26.5,775.00,1.5
2021-02-12,05:20:00,DRY,5.73,5.13,27.7,775.00,1.2
2021-02-12,05:25:00,DRY,6.25,4.95,28.5,775.00,1.0
2021-02-12,05:30:00,DRY,5.20,4.87,28.3,775.00,1.2
2021-02-12,05:35:00,DRY,6.30,4.90,28.0,775.00,1.1
2021-02-12,05:40:00,DRY,5.80,4.87,28.7,775.00,1.0
2021-02-12,05:45:00,DRY,4.15,4.85,29.5,775.00,1.2
2021-02-12,05:50:00,DRY,6.07,5.00,28.3,775.00,1.2
2021-02-12,05:55:00,DRY,7.55,5.10,28.5,775.00,0.9
2021-02-12,06:00:00,DRY,5.90,4.97,28.3,775.00,1.0
2021-02-12,06:05:00,DRY,4.50,4.90,28.0,775.00,0.8
2021-02-12,06:10:00,DRY,6.77,4.67,29.0,775.00,0.5
2021-02-12,06:15:00,DRY,6.00,4.60,28.0,775.00,1.2
2021-02-12,06:20:00,DRY,6.97,4.40,29.0,775.00,1.1
2021-02-12,06:25:00,DRY,5.60,4.40,28.5,775.00,1.0
2021-02-12,06:30:00,DRY,5.43,4.37,28.0,775.00,1.4
2021-02-12,06:35:00,DRY,4.50,4.45,28.5,775.50,1.0
2021-02-12,06:40:00,DRY,4.93,4.43,28.3,775.00,0.9
2021-02-12,06:45:00,DRY,5.80,4.45,28.0,775.00,1.3
2021-02-12,06:50:00,DRY,6.53,4.33,28.0,775.33,1.2
2021-02-12,06:55:00,DRY,5.85,4.35,28.5,775.00,0.7
2021-02-12,07:00:00,DRY,5.97,4.23,28.3,775.67,1.1
2021-02-12,07:05:00,DRY,6.00,4.40,29.0,775.50,1.9
2021-02-12,07:10:00,DRY,5.80,4.13,30.3,775.67,1.2
2021-02-12,07:15:00,DRY,6.55,4.60,28.5,776.00,1.3
2021-02-12,07:20:00,DRY,6.03,4.57,29.0,776.00,1.0
2021-02-12,07:25:00,DRY,6.70,4.65,28.0,776.00,1.2
2021-02-12,07:30:00,DRY,5.87,4.63,28.7,776.00,1.1
2021-02-12,07:35:00,DRY,6.90,4.70,29.0,776.00,1.4
2021-02-12,07:40:00,DRY,5.77,4.70,28.7,776.00,2.2
2021-02-12,07:45:00,DRY,7.35,4.65,28.0,776.00,3.8
2021-02-12,07:50:00,DRY,6.97,4.80,28.3,776.00,5.9
2021-02-12,07:55:00,DRY,7.00,4.90,29.0,776.00,8.6
2021-02-12,08:00:00,DRY,6.03,4.83,29.0,776.00,10.8
2021-02-12,08:05:00,DRY,8.45,5.00,29.0,776.00,13.4
2021-02-12,08:10:00,DRY,6.70,5.17,29.7,776.00,15.4
2021-02-12,08:15:00,DRY,6.95,5.20,29.0,776.00,17.6
2021-02-12,08:20:00,DRY,6.10,5.37,30.3,776.00,19.8
2021-02-12,08:25:00,DRY,6.75,5.40,30.0,776.00,21.4
2021-02-12,08:30:00,DRY,7.67,5.23,29.3,776.00,94.0
2021-02-12,08:35:00,DRY,6.30,5.25,29.5,776.00,176.7
2021-02-12,08:40:00,DRY,7.80,5.30,29.3,776.00,198.4
2021-02-12,08:45:00,DRY,6.70,5.30,30.0,776.00,220.2
2021-02-12,08:50:00,DRY,6.47,5.40,29.7,776.00,243.0
2021-02-12,08:55:00,DRY,5.80,5.35,30.0,776.00,265.6
2021-02-12,09:00:00,DRY,7.07,5.33,30.7,776.00,288.0
2021-02-12,09:05:00,DRY,5.55,5.40,30.0,776.00,309.1
2021-02-12,09:10:00,DRY,5.67,5.53,30.3,776.00,331.4
2021-02-12,09:15:00,DRY,5.75,5.50,30.5,776.00,352.9
2021-02-12,09:20:00,DRY,6.33,5.60,31.3,776.00,374.9
2021-02-12,09:25:00,DRY,4.75,5.55,32.5,776.00,396.6
2021-02-12,09:30:00,DRY,7.60,5.57,35.3,776.00,418.1
2021-02-12,09:35:00,DRY,6.75,5.45,36.5,776.00,439.5
2021-02-12,09:40:00,DRY,5.67,5.43,36.3,776.00,460.2
2021-02-12,09:45:00,DRY,6.45,5.40,38.0,776.00,479.8
2021-02-12,09:50:00,DRY,6.40,5.53,38.3,776.00,500.8
2021-02-12,09:55:00,DRY,6.10,5.50,35.5,776.00,521.2
2021-02-12,10:00:00,DRY,6.37,5.37,34.3,776.33,540.6
2021-02-12,10:05:00,DRY,5.80,5.30,34.5,776.00,559.9
2021-02-12,10:10:00,DRY,6.70,5.30,38.7,776.33,578.6
2021-02-12,10:15:00,DRY,6.00,5.20,40.5,776.50,596.2
2021-02-12,10:20:00,DRY,6.87,5.30,41.3,776.33,614.7
2021-02-12,10:25:00,DRY,7.60,5.30,45.5,776.00,631.5
2021-02-12,10:30:00,DRY,5.73,5.30,46.0,776.67,649.8
2021-02-12,10:35:00,DRY,5.80,5.40,45.5,777.00,665.3
2021-02-12,10:40:00,DRY,5.60,5.43,44.3,777.00,681.8
2021-02-12,10:45:00,DRY,7.55,5.55,46.0,777.00,698.0
2021-02-12,10:50:00,DRY,5.73,5.67,47.0,777.00,714.9
2021-02-12,10:55:00,DRY,5.30,5.80,44.0,777.00,729.3
2021-02-12,11:00:00,DRY,6.33,5.57,47.3,777.00,743.7
2021-02-12,11:05:00,DRY,5.10,5.70,49.0,777.00,757.5
2021-02-12,11:10:00,DRY,5.33,5.60,48.3,777.00,770.5
2021-02-12,11:15:00,DRY,4.95,5.55,50.0,777.00,784.5
2021-02-12,11:20:00,DRY,5.63,5.43,53.0,777.00,797.1
2021-02-12,11:25:00,DRY,6.55,5.40,57.0,777.00,808.3
2021-02-12,11:30:00,DRY,5.33,5.13,64.3,777.00,820.6
2021-02-12,11:35:00,DRY,7.45,5.25,63.0,777.00,831.3
2021-02-12,11:40:00,DRY,5.47,5.43,59.7,777.00,842.3
2021-02-12,11:45:00,DRY,5.95,5.95,51.5,777.00,853.7
2021-02-12,11:50:00,DRY,5.10,6.00,55.7,777.00,862.8
2021-02-12,11:55:00,DRY,5.85,6.05,53.5,777.00,873.0
2021-02-12,12:00:00,DRY,5.97,6.17,53.3,777.00,882.0
2021-02-12,12:05:00,DRY,4.85,6.10,51.5,777.00,890.2
2021-02-12,12:10:00,DRY,5.83,6.37,47.7,777.00,898.5
2021-02-12,12:15:00,DRY,4.05,6.25,52.5,777.00,905.8
2021-02-12,12:20:00,DRY,4.33,6.47,52.0,777.00,912.5
2021-02-12,12:25:00,DRY,5.15,6.60,50.5,777.00,919.4
2021-02-12,12:30:00,DRY,4.20,6.63,50.7,777.00,926.5
2021-02-12,12:35:00,DRY,5.40,6.50,51.5,777.00,931.8
2021-02-12,12:40:00,DRY,3.77,6.53,51.0,777.00,936.8
2021-02-12,12:45:00,DRY,3.80,6.60,48.0,777.00,940.8
2021-02-12,12:50:00,DRY,3.20,6.60,50.7,777.00,943.9
2021-02-12,12:55:00,DRY,3.80,6.70,48.0,777.00,949.2
2021-02-12,13:00:00,DRY,3.53,6.60,51.7,777.00,951.0
2021-02-12,13:05:00,DRY,4.30,6.65,54.0,776.50,953.8
2021-02-12,13:10:00,DRY,3.53,6.57,58.3,777.00,955.5
2021-02-12,13:15:00,DRY,3.05,6.55,60.5,777.00,956.1
2021-02-12,13:20:00,DRY,3.93,6.17,68.7,777.00,956.9
2021-02-12,13:25:00,DRY,4.00,5.95,68.0,777.00,957.0
2021-02-12,13:30:00,DRY,3.60,6.00,66.0,776.00,957.4
2021-02-12,13:35:00,DRY,3.40,6.30,57.0,776.00,954.0
2021-02-12,13:40:00,DRY,3.77,6.57,54.3,776.00,953.2
2021-02-12,13:45:00,DRY,4.95,6.80,48.5,776.00,951.7
2021-02-12,13:50:00,DRY,3.33,6.87,58.3,776.00,949.9
2021-02-12,13:55:00,DRY,4.85,6.70,60.0,776.00,946.0
2021-02-12,14:00:00,DRY,3.53,6.70,53.3,776.00,942.7
2021-02-12,14:05:00,DRY,2.30,6.80,55.0,776.00,937.1
2021-02-12,14:10:00,DRY,3.70,6.63,62.3,776.00,933.0
2021-02-12,14:15:00,DRY,2.10,6.55,57.5,776.00,928.2
2021-02-12,14:20:00,DRY,4.13,6.53,63.0,776.00,923.1
2021-02-12,14:25:00,DRY,2.85,6.45,59.5,776.00,917.2
2021-02-12,14:30:00,DRY,4.43,6.50,56.3,776.00,909.9
2021-02-12,14:35:00,DRY,4.10,6.70,51.0,776.00,902.2
2021-02-12,14:40:00,DRY,4.07,6.53,55.7,776.00,895.5
2021-02-12,14:45:00,DRY,4.00,6.65,56.0,776.00,887.4
2021-02-12,14:50:00,DRY,4.93,6.70,53.7,776.00,877.7
2021-02-12,14:55:00,DRY,4.25,6.60,59.0,776.00,868.7
2021-02-12,15:00:00,DRY,4.53,6.57,59.7,776.00,858.5
2021-02-12,15:05:00,DRY,3.20,6.50,56.0,776.00,848.2
2021-02-12,15:10:00,DRY,4.87,6.47,55.7,776.00,837.6
2021-02-12,15:15:00,DRY,4.80,6.40,54.5,776.00,825.8
2021-02-12,15:20:00,DRY,3.80,6.30,58.0,776.00,814.2
2021-02-12,15:25:00,DRY,4.15,6.15,59.5,776.00,801.6
2021-02-12,15:30:00,DRY,5.13,6.03,60.7,776.00,788.7
2021-02-12,15:35:00,DRY,4.30,5.85,62.5,776.00,776.2
2021-02-12,15:40:00,DRY,4.03,5.67,64.3,776.00,760.7
2021-02-12,15:45:00,DRY,4.85,5.65,62.0,776.00,747.5
2021-02-12,15:50:00,DRY,5.10,5.70,59.7,776.00,732.6
2021-02-12,15:55:00,DRY,5.20,5.70,60.5,776.00,718.0
2021-02-12,16:00:00,DRY,5.47,5.73,54.7,776.00,703.2
2021-02-12,16:05:00,DRY,5.35,5.70,54.5,776.00,687.4
2021-02-12,16:10:00,DRY,4.60,5.53,57.7,776.00,670.8
2021-02-12,16:15:00,DRY,4.95,5.50,60.5,776.00,654.4
2021-02-12,16:20:00,DRY,4.27,5.43,53.7,776.00,636.9
2021-02-12,16:25:00,DRY,4.30,5.25,60.0,776.00,619.5
2021-02-12,16:30:00,DRY,5.10,4.77,75.0,776.00,602.1
2021-02-12,16:35:00,DRY,3.50,4.50,85.0,776.00,579.5
2021-02-12,16:40:00,DRY,4.53,4.20,75.0,776.00,538.1
2021-02-12,16:45:00,DRY,3.95,4.80,60.5,776.00,545.2
2021-02-12,16:50:00,DRY,4.53,4.80,58.7,776.00,526.3
2021-02-12,16:55:00,DRY,3.95,4.15,70.5,776.00,506.2
2021-02-12,17:00:00,DRY,4.03,4.27,74.3,776.00,485.4
2021-02-12,17:05:00,DRY,4.55,4.00,82.5,776.00,465.3
2021-02-12,17:10:00,DRY,5.53,4.23,72.3,776.00,445.7
2021-02-12,17:15:00,DRY,5.65,4.75,55.5,776.00,424.6
2021-02-12,17:20:00,DRY,5.53,4.93,53.0,776.00,403.8
2021-02-12,17:25:00,DRY,4.85,5.20,53.0,776.00,382.4
2021-02-12,17:30:00,DRY,3.70,5.37,46.0,776.00,360.7
2021-02-12,17:35:00,DRY,5.15,5.55,43.0,776.00,338.6
2021-02-12,17:40:00,DRY,5.43,5.80,44.0,776.00,315.5
2021-02-12,17:45:00,DRY,5.15,5.70,40.5,776.00,294.5
2021-02-12,17:50:00,DRY,5.80,6.27,36.3,776.00,271.8
2021-02-12,17:55:00,DRY,5.80,6.45,33.5,776.00,249.8
2021-02-12,18:00:00,DRY,4.50,6.27,35.3,776.00,228.1
2021-02-12,18:05:00,DRY,4.25,5.75,41.0,776.00,207.1
2021-02-12,18:10:00,DRY,5.27,5.57,38.7,776.00,186.5
2021-02-12,18:15:00,DRY,6.35,5.85,38.0,776.00,167.0
2021-02-12,18:20:00,DRY,5.53,5.97,40.3,776.00,142.8
2021-02-12,18:25:00,DRY,5.15,5.45,42.5,776.00,114.5
2021-02-12,18:30:00,DRY,5.40,5.33,44.3,776.00,86.8
2021-02-12,18:35:00,DRY,5.25,5.40,45.5,776.00,63.5
2021-02-12,18:40:00,DRY,5.73,5.53,47.0,776.00,44.6
2021-02-12,18:45:00,DRY,5.20,5.20,51.0,776.00,29.7
2021-02-12,18:50:00,DRY,4.40,4.80,58.0,776.00,18.5
2021-02-12,18:55:00,DRY,3.90,4.05,66.0,776.00,15.1
2021-02-12,19:00:00,DRY,4.87,4.40,58.7,776.00,9.2
2021-02-12,19:05:00,DRY,4.05,4.80,52.0,776.00,5.2
2021-02-12,19:10:00,DRY,4.97,4.23,66.3,776.00,3.2
2021-02-12,19:15:00,DRY,5.00,3.75,70.5,776.00,2.0
2021-02-12,19:20:00,DRY,5.50,3.43,73.3,776.00,1.5
2021-02-12,19:25:00,DRY,5.45,3.70,70.5,777.00,0.6
2021-02-12,19:30:00,DRY,5.33,3.57,70.7,777.00,1.4
2021-02-12,19:35:00,DRY,4.45,4.20,64.5,776.50,1.1
2021-02-12,19:40:00,DRY,5.63,4.27,63.7,777.00,1.7
2021-02-12,19:45:00,DRY,5.60,4.40,64.5,777.00,1.1
2021-02-12,19:50:00,DRY,5.80,4.43,61.3,777.00,1.3
2021-02-12,19:55:00,DRY,5.70,4.85,56.0,777.00,1.1
2021-02-12,20:00:00,DRY,5.93,4.87,55.0,777.00,1.6
2021-02-12,20:05:00,DRY,4.20,4.50,63.5,777.00,1.1
2021-02-12,20:10:00,DRY,4.37,4.23,66.7,777.00,1.4
2021-02-12,20:15:00,DRY,5.10,4.40,60.5,777.00,1.0
2021-02-12,20:20:00,DRY,4.60,4.40,63.3,777.00,0.9
2021-02-12,20:25:00,DRY,4.50,4.10,68.0,777.00,1.1
2021-02-12,20:30:00,DRY,5.17,4.43,60.3,777.00,1.5
2021-02-12,20:35:00,DRY,5.30,4.55,61.5,777.00,1.1
2021-02-12,20:40:00,DRY,4.97,4.63,59.7,777.00,1.3
2021-02-12,20:45:00,DRY,4.85,4.85,56.5,777.00,1.1
2021-02-12,20:50:00,DRY,5.33,4.93,58.0,777.00,1.0
2021-02-12,20:55:00,DRY,6.35,4.95,58.0,777.00,0.8
2021-02-12,21:00:00,DRY,5.63,4.70,59.0,777.00,1.1
2021-02-12,21:05:00,DRY,3.95,4.85,57.5,777.00,1.0
2021-02-12,21:10:00,DRY,4.40,4.97,55.7,777.00,1.1
2021-02-12,21:15:00,DRY,6.00,5.05,54.5,777.00,1.2
2021-02-12,21:20:00,DRY,4.20,5.07,54.7,777.00,1.2
2021-02-12,21:25:00,DRY,4.10,5.25,54.5,777.00,1.1
2021-02-12,21:30:00,DRY,5.87,5.17,54.0,777.00,1.5
2021-02-12,21:35:00,DRY,5.25,5.45,52.5,777.00,1.2
2021-02-12,21:40:00,DRY,4.70,4.87,58.7,777.00,1.1
2021-02-12,21:45:00,DRY,5.05,4.75,59.5,777.00,1.1
2021-02-12,21:50:00,DRY,5.33,4.77,58.3,777.00,1.1
2021-02-12,21:55:00,DRY,5.35,4.80,58.0,777.00,1.1
2021-02-12,22:00:00,DRY,5.27,4.83,57.7,777.00,1.4
2021-02-12,22:05:00,DRY,3.40,4.70,59.5,777.00,1.2
2021-02-12,22:10:00,DRY,3.93,4.50,61.7,777.00,1.0
2021-02-12,22:15:00,DRY,4.80,4.45,61.0,777.00,1.4
2021-02-12,22:20:00,DRY,4.83,4.43,61.0,777.00,1.2
2021-02-12,22:25:00,DRY,5.00,4.65,58.5,777.00,1.1
2021-02-12,22:30:00,DRY,4.53,4.80,56.7,777.00,1.3
2021-02-12,22:35:00,DRY,3.80,4.75,56.5,777.00,0.9
2021-02-12,22:40:00,DRY,3.70,4.70,57.0,777.00,1.1
2021-02-12,22:45:00,DRY,3.60,4.85,56.0,777.00,0.8
2021-02-12,22:50:00,DRY,4.43,4.97,55.0,777.00,1.3
2021-02-12,22:55:00,DRY,5.00,4.70,57.0,777.00,1.1
2021-02-12,23:00:00,DRY,4.70,4.67,56.7,777.00,1.3
2021-02-12,23:05:00,DRY,4.35,4.60,58.0,777.00,1.2
2021-02-12,23:10:00,DRY,4.13,4.63,58.0,777.00,1.1
2021-02-12,23:15:00,DRY,4.40,4.50,59.0,777.00,1.1
2021-02-12,23:20:00,DRY,4.97,4.53,58.7,777.00,1.1
2021-02-12,23:25:00,DRY,4.95,4.35,60.0,777.00,1.1
2021-02-12,23:30:00,DRY,5.80,4.37,59.0,777.00,0.9
2021-02-12,23:35:00,DRY,6.30,4.35,60.0,777.00,1.5
2021-02-12,23:40:00,DRY,5.73,4.40,58.3,777.00,1.8
2021-02-12,23:45:00,DRY,5.45,4.60,57.0,777.00,1.4
2021-02-12,23:50:00,DRY,4.30,4.57,57.0,777.00,1.0
2021-02-12,23:55:00,DRY,4.85,4.45,58.0,777.00,1.2
2021-02-13,00:00:00,DRY,5.60,4.63,57.7,777.00,1.4
2021-02-13,00:05:00,DRY,6.45,4.70,57.5,777.00,1.3
2021-02-13,00:10:00,DRY,5.27,4.77,56.0,777.00,1.4
2021-02-13,00:15:00,DRY,7.05,4.90,53.0,777.00,1.5
2021-02-13,00:20:00,DRY,5.37,5.17,51.3,777.00,1.3
2021-02-13,00:25:00,DRY,5.25,5.25,50.0,777.00,1.4
2021-02-13,00:30:00,DRY,5.73,5.13,51.7,777.00,1.5
2021-02-13,00:35:00,DRY,4.85,5.15,50.5,777.00,0.7
2021-02-13,00:40:00,DRY,4.17,5.37,47.7,777.00,1.4
2021-02-13,00:45:00,DRY,4.85,5.15,48.0,777.00,1.1
2021-02-13,00:50:00,DRY,5.03,5.20,45.7,777.00,1.2
2021-02-13,00:55:00,DRY,5.75,5.50,39.5,777.00,1.2
2021-02-13,01:00:00,DRY,4.90,5.33,32.0,777.00,1.2
2021-02-13,01:05:00,DRY,4.50,5.35,26.5,777.00,1.2
2021-02-13,01:10:00,DRY,4.67,5.20,16.0,777.00,1.1
2021-02-13,01:15:00,DRY,4.55,5.35,14.0,777.00,0.9
2021-02-13,01:20:00,DRY,5.03,5.53,13.0,777.00,0.9
2021-02-13,01:25:00,DRY,6.40,5.55,12.0,777.00,1.1
2021-02-13,01:30:00,DRY,5.40,5.43,13.3,777.00,1.3
2021-02-13,01:35:00,DRY,4.60,5.45,10.5,777.00,1.4
2021-02-13,01:40:00,DRY,4.90,5.50,10.0,777.00,1.5
2021-02-13,01:45:00,DRY,5.85,5.55,10.0,777.00,2.2
2021-02-13,01:50:00,DRY,5.00,5.83,9.0,777.00,1.4
2021-02-13,01:55:00,DRY,6.40,5.80,8.5,777.00,1.5
2021-02-13,02:00:00,DRY,5.60,5.70,9.7,777.00,1.6
2021-02-13,02:05:00,DRY,6.55,5.75,9.5,777.00,1.1
2021-02-13,02:10:00,DRY,4.73,5.70,9.0,777.00,1.1
2021-02-13,02:15:00,DRY,5.40,5.65,9.0,777.00,1.4
2021-02-13,02:20:00,DRY,5.20,5.80,8.0,777.00,1.4
2021-02-13,02:25:00,DRY,4.35,5.80,9.5,777.00,1.6
2021-02-13,02:30:00,DRY,4.57,5.87,9.3,777.00,0.9
2021-02-13,02:35:00,DRY,4.80,5.65,8.0,777.00,1.2
2021-02-13,02:40:00,DRY,5.00,5.53,9.0,777.00,1.4
2021-02-13,02:45:00,DRY,3.85,5.75,8.5,777.00,1.2
2021-02-13,02:50:00,DRY,5.60,5.90,8.7,777.00,1.2
2021-02-13,02:55:00,DRY,3.90,6.25,8.0,777.00,1.4
2021-02-13,03:00:00,DRY,4.20,6.10,7.7,777.00,1.0
2021-02-13,03:05:00,DRY,3.95,6.20,8.0,777.00,0.6
2021-02-13,03:10:00,DRY,3.17,6.63,11.0,777.00,1.5
2021-02-13,03:15:00,DRY,3.80,6.65,14.5,777.00,1.3
2021-02-13,03:20:00,DRY,3.50,6.70,21.0,777.00,1.9
2021-02-13,03:25:00,DRY,3.20,7.10,28.5,777.00,1.5
2021-02-13,03:30:00,DRY,3.60,7.27,24.0,777.00,1.1
2021-02-13,03:35:00,DRY,3.05,6.85,24.0,777.00,1.6
2021-02-13,03:40:00,DRY,3.93,6.77,23.7,777.00,1.4
2021-02-13,03:45:00,DRY,4.05,6.95,24.0,777.00,1.0
2021-02-13,03:50:00,DRY,3.50,6.87,23.7,776.00,1.5
2021-02-13,03:55:00,DRY,3.10,6.60,25.0,776.00,1.5
2021-02-13,04:00:00,DRY,3.77,6.60,31.0,776.00,1.4
2021-02-13,04:05:00,DRY,3.30,6.75,29.0,776.00,1.5
2021-02-13,04:10:00,DRY,4.03,6.60,28.7,776.00,1.0
2021-02-13,04:15:00,DRY,4.55,6.60,30.0,776.00,1.0
2021-02-13,04:20:00,DRY,4.33,6.50,30.3,776.00,1.0
2021-02-13,04:25:00,DRY,4.50,6.65,31.0,776.00,1.7
2021-02-13,04:30:00,DRY,4.97,6.73,32.7,776.00,1.1
2021-02-13,04:35:00,DRY,4.55,6.65,27.5,776.00,1.4
2021-02-13,04:40:00,DRY,4.70,6.63,27.3,776.00,1.2
2021-02-13,04:45:00,DRY,3.65,6.55,28.0,776.00,1.1
2021-02-13,04:50:00,DRY,2.87,6.40,28.3,776.00,1.3
2021-02-13,04:55:00,DRY,4.15,6.55,30.0,776.00,1.2
2021-02-13,05:00:00,DRY,2.83,6.47,25.3,776.00,2.2
2021-02-13,05:05:00,DRY,3.55,6.80,24.5,776.00,0.8
2021-02-13,05:10:00,DRY,3.60,6.87,24.0,776.00,1.2
2021-02-13,05:15:00,DRY,3.60,6.80,26.5,776.00,1.1
2021-02-13,05:20:00,DRY,2.97,7.00,25.3,776.00,1.6
2021-02-13,05:25:00,DRY,3.50,6.60,24.5,776.00,2.3
2021-02-13,05:30:00,DRY,3.30,6.73,25.7,776.00,1.8
2021-02-13,05:35:00,DRY,2.75,7.20,27.0,776.00,1.7
2021-02-13,05:40:00,DRY,3.10,7.40,24.7,776.00,1.3
2021-02-13,05:45:00,DRY,3.55,7.25,24.5,776.00,1.1
2021-02-13,05:50:00,DRY,2.73,7.27,25.3,776.00,1.4
2021-02-13,05:55:00,DRY,3.05,7.25,25.0,776.00,0.9
2021-02-13,06:00:00,DRY,2.07,7.57,22.0,776.00,1.5
2021-02-13,06:05:00,DRY,3.00,7.80,22.0,776.00,1.3
2021-02-13,06:10:00,DRY,2.30,7.80,22.0,776.00,1.2
2021-02-13,06:15:00,DRY,1.70,7.95,20.5,776.00,2.2
2021-02-13,06:20:00,DRY,1.03,7.90,21.0,776.00,1.5
2021-02-13,06:25:00,DRY,1.40,7.80,19.0,776.00,0.9
2021-02-13,06:30:00,DRY,1.13,7.80,20.0,776.00,0.8
2021-02-13,06:35:00,DRY,2.25,7.95,19.5,776.00,1.4
2021-02-13,06:40:00,DRY,2.63,7.93,16.3,776.00,1.0
2021-02-13,06:45:00,DRY,3.00,7.55,12.5,776.00,0.7
2021-02-13,06:50:00,DRY,3.37,7.73,13.7,776.00,1.4
2021-02-13,06:55:00,DRY,1.25,8.15,8.5,776.00,0.2
2021-02-13,07:00:00,DRY,2.53,8.30,8.3,776.00,1.1
2021-02-13,07:05:00,DRY,3.10,7.95,8.0,776.00,1.2
2021-02-13,07:10:00,DRY,2.27,8.23,8.0,776.00,0.6
2021-02-13,07:15:00,DRY,1.20,8.35,8.5,776.00,0.8
2021-02-13,07:20:00,DRY,1.93,7.93,7.7,776.00,0.3
2021-02-13,07:25:00,DRY,2.40,8.05,7.5,776.00,0.7
2021-02-13,07:30:00,DRY,4.70,8.80,6.0,776.00,1.3
2021-02-13,07:35:00,DRY,2.65,8.95,6.0,776.00,1.9
2021-02-13,07:40:00,DRY,1.47,8.67,6.3,776.00,2.6
2021-02-13,07:45:00,DRY,2.20,8.75,6.0,776.50,4.2
2021-02-13,07:50:00,DRY,1.23,9.17,5.0,777.00,7.2
2021-02-13,07:55:00,DRY,2.35,8.75,6.5,777.00,9.3
2021-02-13,08:00:00,DRY,3.63,8.10,8.3,777.00,11.0
2021-02-13,08:05:00,DRY,4.00,7.95,8.5,777.00,13.8
2021-02-13,08:10:00,DRY,3.50,7.80,8.7,777.00,16.1
2021-02-13,08:15:00,DRY,3.80,8.40,8.0,777.00,18.0
2021-02-13,08:20:00,DRY,2.70,8.73,7.0,777.00,20.4
2021-02-13,08:25:00,DRY,1.65,9.15,5.5,777.00,22.1
2021-02-13,08:30:00,DRY,0.97,9.40,6.7,777.00,120.4
2021-02-13,08:35:00,DRY,1.05,9.40,9.5,777.00,189.9
2021-02-13,08:40:00,DRY,1.87,9.50,9.7,777.00,212.7
2021-02-13,08:45:00,DRY,2.85,9.15,10.0,777.00,235.8
2021-02-13,08:50:00,DRY,2.57,9.27,10.0,777.00,258.1
2021-02-13,08:55:00,DRY,0.90,9.70,10.0,777.00,279.7
2021-02-13,09:00:00,DRY,1.60,10.23,9.3,777.00,303.1
2021-02-13,09:05:00,DRY,1.55,9.95,11.0,777.00,326.0
2021-02-13,09:10:00,DRY,1.27,10.23,10.7,777.00,347.8
2021-02-13,09:15:00,DRY,2.20,10.20,11.0,777.00,369.6
2021-02-13,09:20:00,DRY,2.63,10.00,12.7,777.00,393.3
2021-02-13,09:25:00,DRY,2.15,9.95,12.5,777.00,413.6
2021-02-13,09:30:00,DRY,2.33,10.27,11.7,777.00,435.8
2021-02-13,09:35:00,DRY,1.90,10.25,14.5,777.00,456.1
2021-02-13,09:40:00,DRY,2.50,10.27,13.3,777.00,477.2
2021-02-13,09:45:00,DRY,2.40,10.55,13.5,777.00,496.7
2021-02-13,09:50:00,DRY,3.10,10.67,13.0,777.00,518.2
2021-02-13,09:55:00,DRY,1.90,10.70,13.0,777.00,538.5
2021-02-13,10:00:00,DRY,1.23,11.10,13.3,777.00,558.2
2021-02-13,10:05:00,DRY,1.40,11.35,14.0,777.00,578.3
2021-02-13,10:10:00,DRY,2.37,11.10,13.3,777.00,596.7
2021-02-13,10:15:00,DRY,2.80,11.30,14.0,777.00,615.5
2021-02-13,10:20:00,DRY,2.13,11.47,13.3,777.00,633.1
2021-02-13,10:25:00,DRY,1.45,11.20,13.5,777.00,650.6
2021-02-13,10:30:00,DRY,1.33,11.50,14.7,777.00,669.0
2021-02-13,10:35:00,DRY,1.85,11.45,15.5,777.00,685.2
2021-02-13,10:40:00,DRY,2.13,11.33,16.0,777.00,701.5
2021-02-13,10:45:00,DRY,2.30,11.50,17.0,777.00,718.3
2021-02-13,10:50:00,DRY,1.60,11.57,14.7,777.00,734.2
2021-02-13,10:55:00,DRY,2.20,11.55,13.0,777.00,749.8
2021-02-13,11:00:00,DRY,1.30,10.83,14.7,777.00,763.3
2021-02-13,11:05:00,DRY,1.65,10.90,14.0,777.00,778.2
2021-02-13,11:10:00,DRY,1.07,11.27,14.0,777.00,791.5
2021-02-13,11:15:00,DRY,1.85,10.75,14.0,777.00,805.1
2021-02-13,11:20:00,DRY,2.20,10.47,15.7,777.00,816.7
2021-02-13,11:25:00,DRY,2.30,10.50,14.0,777.00,829.5
2021-02-13,11:30:00,DRY,1.93,10.77,12.7,777.00,841.0
2021-02-13,11:35:00,DRY,2.10,10.70,15.0,777.00,852.0
2021-02-13,11:40:00,DRY,2.33,10.43,16.7,777.00,862.3
2021-02-13,11:45:00,DRY,2.05,10.35,14.0,777.00,873.2
2021-02-13,11:50:00,DRY,2.43,10.63,12.7,777.00,882.8
2021-02-13,11:55:00,DRY,3.00,10.55,9.0,777.00,893.3
2021-02-13,12:00:00,DRY,4.13,10.83,11.0,777.00,901.0
2021-02-13,12:05:00,DRY,4.10,10.65,12.0,777.00,908.2
2021-02-13,12:10:00,DRY,3.03,10.57,13.3,777.00,917.3
2021-02-13,12:15:00,DRY,1.95,10.50,15.5,777.00,924.0
2021-02-13,12:20:00,DRY,2.70,10.37,13.7,777.00,931.7
2021-02-13,12:25:00,DRY,2.60,10.35,13.0,777.00,938.1
2021-02-13,12:30:00,DRY,2.53,10.23,19.7,777.00,944.6
2021-02-13,12:35:00,DRY,1.30,9.40,27.5,777.00,950.6
2021-02-13,12:40:00,DRY,2.30,9.67,20.0,777.00,955.2
2021-02-13,12:45:00,DRY,2.60,10.40,15.0,777.00,958.1
2021-02-13,12:50:00,DRY,3.43,10.83,18.7,777.00,963.8
2021-02-13,12:55:00,DRY,2.20,10.65,17.0,777.00,969.2
2021-02-13,13:00:00,DRY,2.33,10.60,19.0,777.00,970.3
2021-02-13,13:05:00,DRY,3.20,10.45,15.5,777.00,971.5
2021-02-13,13:10:00,DRY,2.20,10.47,16.0,777.00,973.2
2021-02-13,13:15:00,DRY,3.00,10.30,12.5,777.00,974.0
2021-02-13,13:20:00,DRY,1.63,10.00,18.7,777.00,975.9
2021-02-13,13:25:00,DRY,2.65,10.50,16.0,777.00,975.9
2021-02-13,13:30:00,DRY,3.00,10.30,20.0,777.00,976.7
2021-02-13,13:35:00,DRY,3.00,10.40,21.0,777.00,971.9
2021-02-13,13:40:00,DRY,2.53,10.63,16.7,777.00,973.0
2021-02-13,13:45:00,DRY,2.50,10.45,15.0,777.00,970.7
2021-02-13,13:50:00,DRY,3.60,10.33,18.3,777.00,967.1
2021-02-13,13:55:00,DRY,2.60,10.25,14.5,776.50,965.1
2021-02-13,14:00:00,DRY,2.83,10.23,16.7,776.67,960.8
2021-02-13,14:05:00,DRY,2.90,10.30,16.5,776.50,956.0
2021-02-13,14:10:00,DRY,3.20,10.23,18.3,776.00,950.7
2021-02-13,14:15:00,DRY,2.65,10.25,17.5,776.00,945.5
2021-02-13,14:20:00,DRY,1.43,10.53,25.0,776.00,940.4
2021-02-13,14:25:00,DRY,1.70,11.10,20.5,776.00,935.0
2021-02-13,14:30:00,DRY,3.20,11.00,25.0,776.00,928.5
2021-02-13,14:35:00,DRY,2.00,10.90,18.0,776.00,920.5
2021-02-13,14:40:00,DRY,2.43,10.87,18.0,776.00,912.3
2021-02-13,14:45:00,DRY,2.80,11.25,21.0,776.00,903.5
2021-02-13,14:50:00,DRY,2.43,11.17,25.3,776.00,894.5
2021-02-13,14:55:00,DRY,3.60,11.10,31.5,776.00,884.2
2021-02-13,15:00:00,DRY,3.37,11.13,19.0,776.00,876.0
2021-02-13,15:05:00,DRY,3.10,11.15,10.0,776.00,864.4
2021-02-13,15:10:00,DRY,3.63,11.17,13.7,776.00,852.9
2021-02-13,15:15:00,DRY,2.15,10.95,23.5,776.00,841.5
2021-02-13,15:20:00,DRY,2.23,10.90,18.7,776.00,828.4
2021-02-13,15:25:00,DRY,3.10,10.75,13.5,776.00,817.7
2021-02-13,15:30:00,DRY,2.90,10.73,20.3,776.00,804.9
2021-02-13,15:35:00,DRY,2.80,10.70,12.0,776.00,791.2
2021-02-13,15:40:00,DRY,2.67,10.70,23.0,776.00,777.0
2021-02-13,15:45:00,DRY,2.80,10.85,18.0,776.00,763.5
2021-02-13,15:50:00,DRY,2.93,11.00,16.3,776.00,748.5
2021-02-13,15:55:00,DRY,2.10,10.80,20.0,776.00,734.2
2021-02-13,16:00:00,DRY,1.17,10.77,31.3,776.00,715.9
2021-02-13,16:05:00,DRY,2.50,10.80,25.0,776.00,703.0
2021-02-13,16:10:00,DRY,1.97,10.30,28.0,776.00,684.8
2021-02-13,16:15:00,DRY,1.30,10.80,18.5,776.00,668.8
2021-02-13,16:20:00,DRY,1.93,10.97,35.0,776.00,649.8
2021-02-13,16:25:00,DRY,1.75,10.75,32.0,776.00,632.6
2021-02-13,16:30:00,DRY,2.87,10.83,27.3,776.00,614.6
2021-02-13,16:35:00,DRY,1.45,10.50,34.0,776.00,595.6
2021-02-13,16:40:00,DRY,2.43,10.57,23.3,776.00,577.0
2021-02-13,16:45:00,DRY,2.55,10.65,30.5,776.00,558.7
2021-02-13,16:50:00,DRY,1.53,10.63,29.7,776.00,538.4
2021-02-13,16:55:00,DRY,2.15,10.55,21.0,776.00,517.8
2021-02-13,17:00:00,DRY,1.50,10.57,30.0,776.00,496.6
2021-02-13,17:05:00,DRY,2.80,10.45,27.5,776.00,475.4
2021-02-13,17:10:00,DRY,2.43,10.47,25.7,776.00,454.6
2021-02-13,17:15:00,DRY,1.55,10.55,26.5,776.00,434.6
2021-02-13,17:20:00,DRY,1.50,10.37,28.0,776.00,412.3
2021-02-13,17:25:00,DRY,1.25,10.35,29.5,776.00,390.7
2021-02-13,17:30:00,DRY,1.93,10.37,25.0,776.00,368.2
2021-02-13,17:35:00,DRY,2.25,10.25,26.5,776.00,345.7
2021-02-13,17:40:00,DRY,1.63,10.20,23.3,776.00,324.0
2021-02-13,17:45:00,DRY,1.90,10.20,27.0,776.00,302.2
2021-02-13,17:50:00,DRY,3.20,10.17,19.3,776.00,280.2
2021-02-13,17:55:00,DRY,2.05,9.90,21.5,776.00,256.6
2021-02-13,18:00:00,DRY,2.53,10.03,19.7,776.00,234.6
2021-02-13,18:05:00,DRY,2.75,10.00,21.0,776.00,213.3
2021-02-13,18:10:00,DRY,2.00,9.97,16.7,776.00,192.5
2021-02-13,18:15:00,DRY,2.00,9.80,18.5,776.00,172.1
2021-02-13,18:20:00,DRY,2.43,9.77,18.7,776.00,149.1
2021-02-13,18:25:00,DRY,2.85,9.80,13.0,776.00,119.8
2021-02-13,18:30:00,DRY,2.47,9.63,13.7,776.00,93.3
2021-02-13,18:35:00,DRY,2.80,9.60,12.0,776.00,68.3
2021-02-13,18:40:00,DRY,2.40,9.47,11.0,776.00,48.8
2021-02-13,18:45:00,DRY,1.45,9.30,11.5,776.00,33.0
2021-02-13,18:50:00,DRY,2.33,9.30,12.3,776.00,20.2
2021-02-13,18:55:00,DRY,2.60,9.05,12.0,776.00,16.1
2021-02-13,19:00:00,DRY,2.97,8.90,9.3,776.00,10.5
2021-02-13,19:05:00,DRY,2.75,9.00,6.5,776.00,5.6
2021-02-13,19:10:00,DRY,2.13,9.00,10.7,776.00,2.8
2021-02-13,19:15:00,DRY,2.20,8.95,7.0,776.00,1.9
2021-02-13,19:20:00,DRY,2.40,9.07,6.0,776.00,1.8
2021-02-13,19:25:00,DRY,2.70,9.10,6.0,776.00,0.8
2021-02-13,19:30:00,DRY,3.57,9.13,5.7,776.00,1.6
2021-02-13,19:35:00,DRY,2.55,9.10,6.0,776.00,0.7
2021-02-13,19:40:00,DRY,2.23,9.17,6.0,776.00,1.4